Back to catalog

ELECTRON KICK STAGE R/B

AliveVLEO
NORAD 100244·ROCKET BODY·🇺🇸 United States

Launched Aug 6, 2026 from Rocket Lab Launch Complex 1

Loading…

Next Passes (next 24 hours)

TLE

FreshSource: Space-Track

Epoch: Sep 14, 2026, 02:24 UTC

1 A0244U 26180B   26257.10068407  .00002524  00000-0  22877-3 0  9997
2 A0244  42.0017 177.0014 0007156 163.4320 196.6739 14.97390534  5814

Track ELECTRON KICK STAGE R/B in real time with AllMySat

Download on the App Store